Regional Weather Roundup
Issued by NWS

Home | Current Version | Previous Version | Text Only | Print | Product List | Glossary Off
Versions: 1 2 3 4 5 6 7 8 9 10 11 12 13 14 15 16 17 18 19 20 21 22 23 24 25 26 27 28

000
ASUS45 KBOU 281007
RWRCO

WEATHER ROUNDUP FOR COLORADO
NATIONAL WEATHER SERVICE DENVER/BOULDER CO
400 AM MDT TUE MAR 28 2017

NOTE: "FAIR" INDICATES FEW OR NO CLOUDS BELOW 12000 FEET WITH NO
SIGNIFICANT WEATHER AND/OR OBSTRUCTIONS TO VISIBILITY.

COZ001>005-013-030-031-281100-
...NORTHWEST COLORADO...

CITY           SKY/WX    TMP DP  RH WIND       PRES   REMARKS
CRAIG          LGT RAIN  38  35  89 W5        29.86S
HAYDEN         CLOUDY    36  30  80 CALM      29.85S
MEEKER         LGT RAIN  38  35  89 CALM      29.85S
MOUNT WERNER   NOT AVBL
STEAMBOAT SPGS CLOUDY    33  32  94 CALM      29.85R
WALDEN         NOT AVBL
$$

COZ006>008-011-281100-
...WEST CENTRAL VALLEYS...

CITY           SKY/WX    TMP DP  RH WIND       PRES   REMARKS
GRAND JUNCTION CLOUDY    42  42 100 CALM      29.84F
MONTROSE       LGT RAIN  38  38 100 NW3       29.88S
EAGLE          LGT SNOW  33  32  96 E5        29.89S FOG     WCI  29
RIFLE          CLOUDY    42  40  92 NW3       29.84F
DELTA          LGT RAIN  43  41  95 CALM      29.85F
NUCLA          CLOUDY    37  36  93 SE3       29.89S
$$

COZ017>023-064>068-281100-
...SOUTHWEST COLORADO...

CITY           SKY/WX    TMP DP  RH WIND       PRES   REMARKS
DURANGO        FAIR      34  34 100 W3        29.85F
CORTEZ         LGT RAIN  39  38  96 SW6       29.86S
PAGOSA SPRINGS CLOUDY    35  35 100 CALM      29.88F
TELLURIDE      CLOUDY    30  30 100 S3        29.88F FOG
WOLF CREEK PAS HVY SNOW  21  21 100 S31G41    29.92F VSB<1/4 WCI   3
$$

COZ009-010-012-014-032>034-037-058>063-281100-
...CENTRAL COLORADO...

CITY           SKY/WX    TMP DP  RH WIND       PRES   REMARKS
ASPEN          FLURRIES  32  32 100 CALM      29.85F
BUENA VISTA    CLOUDY    38  31  74 CALM      29.85F
COPPER MTN     FLURRIES  28  21  74 S5        29.92S WCI  23
BERTHOUD PASS  HAZE      21  10  63 SE8       29.93F VSB 1/4 WCI  12
COTTONWOOD PAS CLOUDY    34  32  93 E3        29.88F
GUNNISON       LGT RAIN  36  34  92 CALM      29.85F
KREMMLING      LGT SNOW  37  36  93 CALM      29.87S
LEADVILLE      CLOUDY    29  26  89 CALM      29.86F
MONARCH PASS   FOG       25  23  93 S17       30.02F VSB 1/4 WCI  11
SALIDA         FAIR      41  34  75 SE5       29.91F
SUNLIGHT       CLOUDY    27  25  93 CALM      29.93F
WILKERSON PASS FOG       28  28 100 CALM      29.94F VSB 1
$$

COZ069>075-281100-
...SAN LUIS VALLEY/SANGRE DE CRISTO MOUNTAINS...

CITY           SKY/WX    TMP DP  RH WIND       PRES   REMARKS
ALAMOSA        FAIR      30  30 100 E5        29.84F WCI  25
LA VETA PASS   NOT AVBL
SAGUACHE       CLOUDY    36  32  87 SE7       29.87F
$$

COZ035-036-038>040-281100-
...NORTHERN COLORADO FRONT RANGE...

CITY           SKY/WX    TMP DP  RH WIND       PRES   REMARKS
DENVER INTL AP CLOUDY    45  40  82 W8        29.81S
DMNS CITY PARK   N/A     46  40  80 N3G9      29.82S
AURORA         CLOUDY    43  42  97 NW3       29.82F
FRONT RANGE AP CLOUDY    45  43  93 NW6       29.82F
ERIE MUNI ARPT CLOUDY    45  41  86 CALM      29.82S
BOULDER MUN AP CLOUDY    45  43  93 CALM      29.82S
CENTENNIAL     CLOUDY    44  40  85 N6        29.81F
BROOMFIELD     CLOUDY    45  41  87 N9        29.82S
FORT COLLINS   LGT RAIN  45  40  82 N10       29.82S
LONGMONT       CLOUDY    48  41  77 CALM      29.82F
$$

COZ041-046-047-076>085-087-088-281100-
...PIKES PEAK/PALMER DIVIDE AND SOUTHERN FOOTHILLS...

CITY           SKY/WX    TMP DP  RH WIND       PRES   REMARKS
COLO. SPRINGS  FAIR      40  36  86 NE9       29.82F
A. F. ACADEMY  MOCLDY    42  39  88 CALM      29.81F
SCHRIEVER AFB  FAIR      38  34  85 NE7       29.82F
ELLICOTT       NOT AVBL
FALCON         MOCLDY    38  34  85 NW5       29.85F
FORT CARSON    FAIR      40  38  91 NE5       29.80F
LIMON          FAIR      38  36  92 SE8       29.83F
MONUMENT HILL  FAIR      37  34  87 S12       29.84F
TRINIDAD       FAIR      44  37  76 W7        29.79F
$$

COZ042>045-048>051-090-091-281100-
...NORTHEAST COLORADO...

CITY           SKY/WX    TMP DP  RH WIND       PRES   REMARKS
GREELEY ARPT   FAIR      40  39  97 NW7       29.81S
AKRON          CLOUDY    45  37  73 SE16      29.83F
BURLINGTON     CLOUDY    46  41  82 SE17G25   29.87F
WRAY           NOT AVBL
STERLING       DRIZZLE   46  41  81 S9        29.84S
HOLYOKE        LGT RAIN  46  43  87 SE9       29.90S
FORT MORGAN    CLOUDY    47  38  69 SE10      29.83S
$$

COZ086-089-092>099-281100-
...SOUTHEAST COLORADO...

CITY           SKY/WX    TMP DP  RH WIND       PRES   REMARKS
PUEBLO         FAIR      44  40  85 N12       29.76F
LA JUNTA       CLOUDY    47  36  65 E10       29.77F
LAMAR          CLOUDY    49  40  71 SE13      29.83F
SPRINGFIELD      N/A     41  38  89 SE10      29.85S
$$




USA.gov is the U.S. government's official web portal to all federal, state and local government web resources and services.